FW4060 Weather Reports


time (UTC)temp
C
wind
direction
speed
KPH
gust
KPH
rain 1hr
cm
rain 24hr
cm
rain mn
cm
humidity
%
barometer
mb
20260505211004 10 268 4.8 22.5 0.15 0.99 0.99 78 1018.3
20260505210503 10 121 8.0 22.5 0.15 0.99 0.99 78 1018.4
20260505210006 11 161 4.8 17.7 0.15 0.99 0.99 81 1018.5
20260505205503 11 147 6.4 20.9 0.15 0.99 0.99 84 1018.5
20260505205002 10 249 4.8 19.3 0.15 0.99 0.99 88 1018.6
20260505204503 10 255 4.8 22.5 0.15 0.99 0.99 88 1018.6
20260505204005 9 172 4.8 22.5 0.15 0.99 0.99 88 1018.9
20260505203502 9 203 0.0 16.1 0.15 0.99 0.99 85 1018.9
20260505203008 9 187 4.8 16.1 0.10 0.94 0.94 85 1018.9
20260505202504 10 159 4.8 14.5 0.10 0.94 0.94 89 1018.8
20260505202004 8 278 4.8 16.1 0.10 0.94 0.94 80 1018.7
20260505201504 10 214 8.0 29.0 0.08 0.91 0.91 73 1018.8
20260505201004 11 247 4.8 29.0 0.00 0.84 0.84 71 1018.6
20260505200504 11 226 6.4 16.1 0.00 0.84 0.84 66 1018.5
20260505200004 12 152 8.0 22.5 0.00 0.84 0.84 65 1018.4
20260505195506 12 242 9.7 22.5 0.00 0.84 0.84 69 1018.5
20260505195002 12 162 4.8 17.7 0.00 0.84 0.84 71 1018.6
20260505194503 11 187 6.4 20.9 0.00 0.84 0.84 73 1018.9
20260505194004 11 278 6.4 25.7 0.03 0.84 0.84 80 1018.9
20260505193502 11 243 6.4 25.7 0.05 0.84 0.84 82 1019.0
20260505193002 10 166 6.4 16.1 0.10 0.84 0.84 86 1019.0
20260505192506 10 182 3.2 22.5 0.15 0.84 0.84 87 1019.1
20260505192004 10 293 1.6 14.5 0.18 0.84 0.84 90 1019.2
20260505191506 9 236 4.8 25.7 0.20 0.84 0.84 91 1019.4
20260505191005 9 228 8.0 25.7 0.20 0.84 0.84 93 1019.4
20260505190503 8 214 3.2 20.9 0.20 0.84 0.84 93 1019.4
20260505190005 8 252 6.4 14.5 0.23 0.84 0.84 94 1019.5
20260505185502 7 245 4.8 17.7 0.23 0.84 0.84 93 1019.6
20260505185002 7 299 8.0 20.9 0.23 0.84 0.84 93 1019.6
20260505184504 7 227 3.2 20.9 0.23 0.84 0.84 93 1019.5
20260505184003 7 288 3.2 14.5 0.20 0.81 0.81 93 1019.5
20260505183503 7 269 4.8 16.1 0.20 0.79 0.79 92 1019.5
20260505183008 7 199 6.4 16.1 0.15 0.71 0.71 92 1019.4
20260505182507 7 236 6.4 16.1 0.10 0.69 0.69 92 1019.6
20260505182003 7 317 6.4 17.7 0.08 0.66 0.66 92 1019.4
20260505181504 7 211 4.8 20.9 0.05 0.64 0.64 92 1019.3
20260505181003 7 270 11.3 20.9 0.05 0.64 0.64 92 1019.3
20260505180506 7 221 8.0 17.7 0.05 0.64 0.64 91 1019.2
20260505180005 7 214 6.4 24.1 0.03 0.61 0.61 91 1019.2
20260505175502 7 226 4.8 27.4 0.03 0.61 0.61 91 1019.3
20260505175003 7 235 8.0 17.7 0.03 0.61 0.61 91 1019.3
20260505174504 7 275 6.4 16.1 0.03 0.61 0.61 91 1019.2
20260505174004 7 251 6.4 19.3 0.03 0.61 0.61 91 1019.2
20260505173502 7 197 8.0 22.5 0.00 0.58 0.58 90 1019.2
20260505173011 7 218 9.7 22.5 0.00 0.58 0.58 90 1019.1
20260505172504 7 253 11.3 20.9 0.00 0.58 0.58 89 1019.2
20260505172003 8 263 8.0 19.3 0.00 0.58 0.58 88 1019.2
20260505171506 8 228 8.0 19.3 0.00 0.58 0.58 89 1018.9
20260505171004 8 270 8.0 19.3 0.00 0.58 0.58 89 1018.8
20260505170505 8 218 4.8 19.3 0.00 0.58 0.58 89 1018.8
20260505170007 8 217 6.4 16.1 0.00 0.58 0.58 89 1018.8
20260505165503 8 233 6.4 16.1 0.00 0.58 0.58 89 1018.8
20260505165003 8 198 6.4 16.1 0.00 0.58 0.58 89 1018.8
20260505164504 8 242 6.4 16.1 0.00 0.58 0.58 89 1018.8
20260505164006 8 191 4.8 12.9 0.00 0.58 0.58 90 1018.6
20260505163506 8 240 4.8 12.9 0.00 0.58 0.58 91 1018.7
20260505163004 8 229 3.2 14.5 0.00 0.58 0.58 91 1018.8
20260505162504 8 233 4.8 16.1 0.00 0.58 0.58 92 1018.7
20260505162003 7 210 4.8 17.7 0.00 0.58 0.58 93 1018.7
20260505161503 7 206 4.8 17.7 0.00 0.58 0.58 92 1019.0
20260505161009 7 247 0.0 14.5 0.00 0.58 0.58 93 1019.0
20260505160506 7 262 3.2 14.5 0.00 0.58 0.58 93 1019.0
20260505153004 7 288 3.2 11.3 0.00 0.58 0.58 93 1018.8
20260505152504 6 239 1.6 14.5 0.00 0.58 0.58 93 1018.8
20260505152010 6 250 3.2 14.5 0.00 0.58 0.58 93 1018.7
20260505151508 6 214 3.2 12.9 0.00 0.58 0.58 93 1018.6
20260505151008 6 203 1.6 12.9 0.00 0.58 0.58 93 1018.8
20260505150508 6 214 1.6 11.3 0.00 0.58 0.58 93 1018.8
20260505140505 6 196 4.8 11.3 0.10 0.58 0.58 93 1018.4
20260505125002 6 260 1.6 8.0 0.25 0.43 0.43 92 1018.0
20260505124503 6 260 0.0 11.3 0.28 0.43 0.43 92 1018.1
20260505124007 6 238 3.2 9.7 0.30 0.41 0.41 91 1018.1
20260505123504 6 262 1.6 9.7 0.30 0.41 0.41 91 1018.1
20260505123002 6 260 1.6 9.7 0.33 0.41 0.41 91 1018.1
20260505122503 6 241 3.2 12.9 0.36 0.41 0.41 91 1018.1
20260505122102 6 242 3.2 14.5 0.33 0.38 0.38 91 1018.0
20260505121503 6 209 6.4 16.1 0.28 0.30 0.30 91 1018.3
20260505121003 7 231 3.2 11.3 0.20 0.23 0.23 91 1018.3
20260505120502 7 199 3.2 8.0 0.18 0.20 0.20 91 1018.3
20260505120010 7 221 0.0 8.0 0.18 0.18 0.18 91 1018.2
20260505115505 7 240 3.2 8.0 0.18 0.18 0.18 91 1018.1
20260505115002 7 260 0.0 4.8 0.15 0.15 0.15 91 1017.9
20260505114602 7 208 0.0 6.4 0.15 0.15 0.15 90 1018.0
20260505114003 7 217 3.2 6.4 0.10 0.10 0.10 90 1018.1
20260505113503 7 181 0.0 12.9 0.08 0.08 0.08 90 1018.2
20260505113112 7 207 1.6 12.9 0.08 0.08 0.08 90 1018.2
20260505112502 7 189 0.0 14.5 0.05 0.05 0.05 89 1018.0
20260505112007 7 193 3.2 17.7 0.03 0.03 0.03 89 1018.2
20260505111603 7 276 3.2 19.3 0.03 0.03 0.03 89 1018.1
20260505111010 7 127 4.8 19.3 0.03 0.03 0.03 88 1018.2
20260505110503 7 264 1.6 14.5 0.03 0.03 0.03 88 1018.2
20260505102002 8 114 3.2 12.9 0.00 0.00 0.00 83 1018.2
20260505101503 8 264 3.2 16.1 0.00 0.00 0.00 83 1018.2
20260505101006 8 170 4.8 17.7 0.00 0.00 0.00 82 1018.3
20260505100503 8 218 6.4 14.5 0.00 0.00 0.00 81 1018.2
20260505100013 8 239 4.8 17.7 0.00 0.00 0.00 81 1018.1
20260505095500 8 204 6.4 19.3 0.00 0.00 0.00 81 1018.3
20260505095001 8 237 8.0 19.3 0.00 0.00 0.00 81 1018.3
20260505094500 8 12 8.0 20.9 0.00 0.00 0.00 82 1018.1
20260505094001 8 287 6.4 20.9 0.00 0.00 0.00 82 1018.1
20260505093502 8 265 8.0 19.3 0.00 0.00 0.00 82 1018.0
20260505093019 8 214 6.4 19.3 0.00 0.00 0.00 82 1018.2
20260505092503 8 270 4.8 25.7 0.00 0.00 0.00 82 1018.1
20260505092005 8 316 8.0 30.6 0.00 0.00 0.00 81 1018.1
20260505091502 8 190 8.0 30.6 0.00 0.00 0.00 81 1018.2
20260505091002 8 221 8.0 25.7 0.00 0.00 0.00 81 1018.0
20260505090502 8 118 8.0 17.7 0.00 0.00 0.00 80 1017.8
20260505090005 8 176 6.4 16.1 0.00 0.00 0.00 80 1017.7
20260505085503 8 82 4.8 19.3 0.00 0.00 0.00 79 1018.1
20260505085003 8 204 4.8 19.3 0.00 0.00 0.00 78 1018.3
20260505084503 8 239 6.4 22.5 0.00 0.00 0.00 78 1018.3
20260505084003 8 186 8.0 22.5 0.00 0.00 0.00 78 1018.5
20260505083506 8 152 4.8 14.5 0.00 0.00 0.00 77 1018.6
20260505083003 8 216 4.8 17.7 0.00 0.00 0.00 76 1018.8
20260505082502 8 147 6.4 17.7 0.00 0.00 0.00 76 1018.9
20260505082002 8 133 3.2 17.7 0.00 0.00 0.00 75 1019.0
20260505081505 8 198 4.8 25.7 0.00 0.00 0.00 75 1019.0
20260505081002 8 201 8.0 22.5 0.00 0.00 0.00 74 1018.9
20260505080502 8 187 6.4 22.5 0.00 0.00 0.00 74 1018.9
20260505080006 8 194 6.4 16.1 0.00 0.00 0.00 73 1019.0
20260505075502 8 183 4.8 14.5 0.00 0.00 0.00 73 1019.1
20260505075000 8 139 4.8 19.3 0.00 0.00 0.00 72 1019.0
20260505074505 8 228 6.4 19.3 0.00 0.00 0.00 72 1019.0
20260505074002 8 263 1.6 16.1 0.00 0.00 0.00 72 1019.1
20260505073502 8 174 6.4 24.1 0.00 0.00 0.00 72 1019.1
20260505073003 8 206 1.6 20.9 0.00 0.00 0.00 73 1019.0
20260505072504 8 208 6.4 25.7 0.00 0.00 0.00 72 1019.0
20260505072007 8 266 8.0 25.7 0.00 0.00 0.00 73 1019.0
20260505071502 8 188 4.8 16.1 0.00 0.00 0.00 73 1019.0
20260505071002 8 120 4.8 17.7 0.00 0.00 0.00 73 1018.9
20260505070504 8 154 4.8 17.7 0.00 0.00 0.00 73 1019.0
20260505070011 8 235 4.8 17.7 0.00 0.00 0.00 74 1019.0
20260505065504 8 150 6.4 17.7 0.00 0.00 0.00 73 1019.2
20260505065005 9 112 8.0 24.1 0.00 0.00 0.00 73 1019.4
20260505064504 9 261 4.8 17.7 0.00 0.00 0.00 73 1019.5
20260505064007 9 200 6.4 16.1 0.00 0.00 0.00 72 1019.5
20260505063504 9 157 6.4 16.1 0.00 0.00 0.00 72 1019.5
20260505063005 9 116 4.8 16.1 0.00 0.00 0.00 71 1019.6
20260505062510 9 195 6.4 17.7 0.00 0.00 0.00 70 1019.4
20260505062008 9 228 4.8 17.7 0.00 0.00 0.00 68 1019.4
20260505061508 9 193 4.8 17.7 0.00 0.00 0.00 68 1019.6
20260505061006 9 192 4.8 16.1 0.00 0.00 0.00 67 1019.5
20260505060504 10 196 3.2 14.5 0.00 0.00 0.00 66 1019.6
20260505060012 10 202 4.8 14.5 0.00 0.00 0.00 66 1019.5
20260505055506 10 207 3.2 14.5 0.00 0.00 0.00 66 1019.5
20260505055005 10 222 3.2 19.3 0.00 0.00 0.00 65 1019.5
20260505054505 10 213 6.4 17.7 0.00 0.00 0.00 65 1019.4
20260505054005 10 184 4.8 17.7 0.00 0.00 0.00 64 1019.4
20260505053504 10 183 4.8 16.1 0.00 0.00 0.00 63 1019.2
20260505053004 10 181 3.2 12.9 0.00 0.00 0.00 61 1018.9
20260505052504 10 224 4.8 12.9 0.00 0.00 0.00 61 1019.1
20260505052006 10 197 6.4 20.9 0.00 0.00 0.00 59 1019.3
20260505051514 10 233 8.0 20.9 0.00 0.00 0.00 58 1019.4
20260505051005 10 156 6.4 22.5 0.00 0.00 0.00 57 1019.2
20260505050506 10 206 9.7 22.5 0.00 0.00 0.00 57 1018.9
20260505041503 10 170 4.8 19.3 0.00 0.00 0.00 53 1019.3
20260505041007 10 244 6.4 24.1 0.00 0.00 0.00 52 1019.2
20260505040505 11 156 4.8 24.1 0.00 0.00 0.00 52 1019.0
20260505040010 11 222 9.7 32.2 0.00 0.00 0.00 52 1019.2
20260505035505 11 104 8.0 32.2 0.00 0.00 0.00 51 1019.2
20260505035004 11 199 6.4 24.1 0.00 0.00 0.00 51 1018.9
20260505034504 11 240 11.3 24.1 0.00 0.00 0.00 51 1018.7
20260505034004 11 148 8.0 32.2 0.00 0.00 0.00 50 1018.4
20260505033504 11 201 6.4 25.7 0.00 0.00 0.00 50 1018.3
20260505033005 11 195 3.2 20.9 0.00 0.00 0.00 50 1018.6
20260505032505 11 196 9.7 20.9 0.00 0.00 0.00 49 1018.7
20260505032004 11 168 6.4 22.5 0.00 0.00 0.00 49 1018.6
20260505031504 11 228 6.4 22.5 0.00 0.00 0.00 49 1018.6
20260505031004 11 185 6.4 22.5 0.00 0.00 0.00 48 1018.4
20260505030504 11 257 6.4 24.1 0.00 0.00 0.00 48 1018.3
20260505030006 11 170 8.0 24.1 0.00 0.00 0.00 48 1018.4
20260505025507 11 109 8.0 33.8 0.00 0.00 0.00 47 1018.2
20260505025006 11 224 8.0 33.8 0.00 0.00 0.00 46 1018.1
20260505024509 11 183 6.4 27.4 0.00 0.00 0.00 46 1018.1
20260505024004 11 111 8.0 30.6 0.00 0.00 0.00 46 1017.9
20260505023504 12 217 12.9 30.6 0.00 0.00 0.00 45 1018.2
20260505023004 12 139 11.3 25.7 0.00 0.00 0.00 44 1018.3
20260505022504 12 81 6.4 19.3 0.00 0.00 0.00 42 1018.5
20260505022005 12 251 6.4 30.6 0.00 0.00 0.00 42 1018.4
20260505021505 12 178 8.0 30.6 0.00 0.00 0.00 41 1018.4
20260505021004 12 227 11.3 27.4 0.00 0.00 0.00 41 1018.3
20260505020505 12 200 9.7 27.4 0.00 0.00 0.00 40 1018.2
20260505020008 12 117 6.4 20.9 0.00 0.00 0.00 40 1018.2
20260505015507 12 114 6.4 27.4 0.00 0.00 0.00 39 1018.2
20260505015004 12 241 8.0 27.4 0.00 0.00 0.00 39 1018.1
20260505014505 12 78 9.7 25.7 0.00 0.00 0.00 39 1018.1
20260505014007 12 251 8.0 25.7 0.00 0.00 0.00 40 1018.1
20260505013504 12 253 11.3 22.5 0.00 0.00 0.00 40 1018.1
20260505013004 12 222 11.3 20.9 0.00 0.00 0.00 41 1017.9
20260505012504 12 266 8.0 33.8 0.00 0.00 0.00 41 1018.0
20260505012006 13 141 9.7 33.8 0.00 0.00 0.00 41 1018.0
20260505011505 13 201 8.0 27.4 0.00 0.00 0.00 41 1018.0
20260505011004 13 191 8.0 20.9 0.00 0.00 0.00 40 1018.1
20260505010508 13 276 8.0 22.5 0.00 0.00 0.00 40 1017.9
20260505010006 13 212 9.7 25.7 0.00 0.00 0.00 40 1017.7
20260505005504 13 212 6.4 25.7 0.00 0.00 0.00 40 1017.7
20260505005004 13 207 6.4 22.5 0.00 0.00 0.00 39 1017.7
20260505004508 13 272 8.0 22.5 0.00 0.00 0.00 38 1017.7
20260505004005 13 216 8.0 25.7 0.00 0.00 0.00 37 1017.8
20260505003507 14 219 8.0 29.0 0.00 0.00 0.00 35 1018.0
20260505003014 14 89 8.0 29.0 0.00 0.00 0.00 34 1018.1
20260505002504 14 222 6.4 22.5 0.00 0.00 0.00 35 1018.3
20260505002004 15 120 8.0 20.9 0.00 0.00 0.00 34 1017.9
20260505001505 15 240 6.4 30.6 0.00 0.00 0.00 35 1018.1
20260505001004 15 207 9.7 30.6 0.00 0.00 0.00 34 1017.9
20260505000504 15 232 12.9 38.6 0.00 0.00 0.00 32 1017.6
20260505000006 15 245 9.7 38.6 0.00 0.00 0.00 32 1017.8
20260504235503 15 208 12.9 37.0 0.00 0.00 0.00 32 1017.6
20260504235005 15 97 14.5 37.0 0.00 0.00 0.00 31 1017.1
20260504234504 15 201 9.7 41.8 0.00 0.00 0.00 32 1017.2
20260504234003 16 147 12.9 41.8 0.00 0.00 0.00 31 1017.4
20260504233503 16 231 12.9 27.4 0.00 0.00 0.00 31 1017.6
20260504233003 16 218 14.5 30.6 0.00 0.00 0.00 31 1017.5
20260504232502 16 204 16.1 40.2 0.00 0.00 0.00 31 1017.1
20260504232002 16 120 12.9 30.6 0.00 0.00 0.00 30 1017.1
20260504231504 16 228 11.3 29.0 0.00 0.00 0.00 29 1017.4
20260504231005 16 201 8.0 29.0 0.00 0.00 0.00 30 1017.4
20260504230504 16 218 12.9 30.6 0.00 0.00 0.00 29 1017.4
20260504230005 17 241 11.3 40.2 0.00 0.00 0.00 28 1017.5
20260504225506 17 190 12.9 40.2 0.00 0.00 0.00 28 1017.6
20260504225003 17 183 11.3 37.0 0.00 0.00 0.00 28 1017.8
20260504224503 17 204 12.9 29.0 0.00 0.00 0.00 28 1017.8
20260504224003 17 174 12.9 32.2 0.00 0.00 0.00 27 1017.7
20260504223503 17 199 16.1 32.2 0.00 0.00 0.00 27 1017.6
20260504223003 18 113 11.3 27.4 0.00 0.00 0.00 27 1017.8
20260504222504 18 180 9.7 29.0 0.00 0.00 0.00 27 1017.7
20260504222003 18 249 9.7 40.2 0.00 0.00 0.00 26 1017.8
20260504221503 17 235 14.5 40.2 0.00 0.00 0.00 26 1017.7
20260504221004 18 199 8.0 25.7 0.00 0.00 0.00 27 1017.9
20260504220504 18 208 11.3 27.4 0.00 0.00 0.00 26 1018.0
20260504220005 18 197 11.3 27.4 0.00 0.00 0.00 26 1017.7
20260504215503 19 121 9.7 27.4 0.00 0.00 0.00 25 1017.7
20260504215007 19 206 9.7 24.1 0.00 0.00 0.00 25 1017.7
20260504214502 20 237 9.7 24.1 0.00 0.00 0.00 24 1017.8
20260504214003 20 212 6.4 24.1 0.00 0.00 0.00 23 1017.9
20260504213503 20 133 8.0 33.8 0.00 0.00 0.00 23 1018.0
20260504213004 19 199 11.3 33.8 0.00 0.00 0.00 25 1017.7
20260504212503 19 214 11.3 25.7 0.00 0.00 0.00 24 1017.9
20260504212004 19 18 9.7 25.7 0.00 0.00 0.00 24 1018.0
20260504211502 18 237 14.5 40.2 0.00 0.00 0.00 25 1017.8